If you wish to contribute or participate in the discussions about articles you are invited to join SKYbrary as a registered user

 Actions

Minami-Daito Airport

From SKYbrary Wiki

ROMD
Airport
ICAO: ROMD – IATA: MMD
Summary
Name Minami-Daito Airport
Region Asia and Pacific
Territory Japan JP.gif
Location Minamidaito, Okinawa Prefecture
Serving Minamidaito
Elevation 48.463 m
159 ft48.463 m
Coordinates 25° 50' 45.60" N, 131° 15' 55.51" E
Runways
Designator Length Width Surface ROPS
2/20 1500 m4,921.26 ft
45 m147.638 ft
ASP /


METAR
Observation ROMD 222000Z AUTO 14006KT 110V180 9999 FEW024 BKN060 22/18 Q1021
Station Minamidaitojima
Date/Time 22 January 2020 20:00:00
Wind direction 140°
Wind speed 06 kts
Lowest cloud amount few clouds
Temperature 22°C
Dew point 18°C
Humidity 78%
QNH 1021 hPa
Weather condition n/a

Minamidaito Airport is an airport in Minamidaitō, Shimajiri District, Okinawa Prefecture, Japan.

Climatology

Humid Sub-tropical climate (Köppen climate classification Cfa)

Maps

Terrain

Loading map...

Airport Layout

Loading map...


Accidents & Serious Incidents at or in vicinity of ROMD

None on SKYbrary